Location: Hamburg
(53.5500°N, 10.0000°E)
Time: 01:19:50
(UTC+01:00)

Vanguard 1 Rocket - Visible Passes

Search period start: 23 March 2017 00:00
Search period end: 02 April 2017 01:00
Orbit: 649 x 4228 km, 34.3° (Epoch: 21 March)

Date Brightness Start Highest point End Pass type
(mag) Time Alt. Az. Time Alt. Az. Time Alt. Az.
23 Mar 11.5 19:07:41 10° W 19:27:25 32° SSW 19:46:31 10° SSE visible
23 Mar 11.7 21:45:44 10° WSW 21:53:03 12° WSW 22:00:00 10° SW visible
24 Mar 11.6 20:25:58 10° W 20:41:22 20° SW 20:55:54 10° S visible
25 Mar 11.6 19:10:39 10° W 19:28:58 28° SW 19:47:21 10° S visible
26 Mar 11.8 21:30:18 10° W 21:42:43 16° SW 21:54:51 10° SSW visible
27 Mar 11.7 20:13:57 10° W 20:30:29 24° SW 20:47:38 10° S visible
28 Mar 11.9 21:36:39 10° WSW 21:44:04 12° SW 21:51:28 10° SW visible
29 Mar 11.9 20:17:47 10° W 20:32:02 20° SW 20:47:06 10° S visible
31 Mar 12.0 20:22:38 10° WSW 20:33:35 15° SW 20:45:16 10° SSW visible
